Location: Kandrika
(16.8343°N, 80.4979°E)
Time: 12:18:16
(UTC+00:00)

Daily predictions for brighter satellites

Satellite Brightness Start Highest point End
(mag) Time Altitude Azimuth Time Altitude Azimuth Time Altitude Azimuth
SL-8 R/B 4.2 13:17:35 10° NNW 13:22:05 44° NE 13:26:34 10° ESE
COBE Rocket 4.0 13:17:14 10° NNE 13:22:16 86° E 13:27:10 10° S
SWIFT 1.8 13:20:27 10° W 13:23:32 65° N 13:26:38 10° ENE
CZ-2D R/B 4.3 13:25:14 10° SSW 13:27:56 34° W 13:30:38 10° NNW
Cosmos 405 Rocket 4.0 13:25:26 10° NNW 13:28:08 33° W 13:30:51 10° SSW
Cosmos 1110 Rocket 4.0 13:24:20 10° S 13:29:31 64° ESE 13:34:44 10° NNE
Cosmos 1833 Rocket 4.4 13:25:57 10° SW 13:31:05 38° WNW 13:36:14 10° N
ARIANE 6 FM1 Upper Stage 3.4 13:27:41 10° N 13:31:16 32° ENE 13:34:52 10° SE
Cosmos 1607 3.9 13:26:04 10° SSW 13:32:03 63° ESE 13:38:06 10° NNE
SAR-Lupe-4 3.6 13:39:27 10° SSE 13:42:53 57° ENE 13:46:20 10° N
ATLAS 5 CENTAUR R/B 1.2 13:37:31 10° W 13:42:58 53° N 13:45:18 11° ENE
Cosmos 1818 3.7 13:38:24 10° NNW 13:43:50 78° WSW 13:49:13 10° SSE
Cosmos 2100 Rocket 4.3 13:45:24 10° SSE 13:51:10 42° E 13:56:58 10° NNE
GPS 2-15 Rocket1 4.4 13:47:50 10° SSW 13:51:40 24° SSE 13:53:46 18° ESE
Meteor 2-1 Rocket 4.3 13:46:05 10° S 13:51:42 54° E 13:57:10 10° NNE
SL-24 R/B 4.3 13:47:58 10° NNE 13:52:07 50° E 13:56:25 10° S
SPOT 5 4.0 13:50:45 17° ESE 13:52:24 20° ENE 13:55:34 10° NNE
Resurs 01 Rocket 1.7 13:49:10 10° S 13:53:31 81° W 13:57:52 10° NNW
Cosmos 1656 3.7 13:48:50 10° N 13:54:24 69° ENE 14:00:00 10° SSE
TOS 3.2 13:54:49 10° W 13:57:16 69° S 14:01:03 17° E
PSLV R/B 3.3 13:53:45 10° SSE 13:57:52 77° ENE 14:02:00 10° N
Cosmos 2151 Rocket 3.6 13:57:09 10° S 14:01:30 84° W 14:05:51 10° N
Okean 2 Rocket 3.0 13:58:02 10° S 14:02:27 67° E 14:06:52 10° N
FALCON 9 R/B 3.9 13:56:55 10° WSW 14:04:19 80° SSE 14:37:20 10° ENE
NOAA 6 4.4 14:02:50 10° S 14:07:51 64° WSW 14:12:53 10° NNW
Helios 1A Rocket 3.5 14:06:16 10° NE 14:08:06 24° ENE 14:08:06 24° ENE
Cosmos 1536 Rocket 4.4 14:05:47 10° NNE 14:09:35 29° E 14:10:13 28° E
ASTEX 1 3.9 14:07:56 24° SE 14:10:15 37° E 14:14:47 10° NNE
SL-24 R/B 4.5 14:07:27 10° NNE 14:12:07 63° ESE 14:17:38 10° S
ATLAS 2A CENTAUR R/B 2.7 14:10:16 10° NW 14:12:51 20° N 14:13:36 18° NNE
NOSS 3-3 (A) 3.5 14:08:21 10° SSW 14:13:06 76° WNW 14:18:10 10° NNE
Meteor 2-3 Rocket 4.5 14:11:43 10° NNE 14:16:43 32° E 14:17:57 29° ESE
Cosmos 2082 Rocket 2.1 14:11:54 10° SSW 14:17:35 80° ESE 14:23:17 10° NNE
Cosmos 1725 Rocket 4.2 14:16:15 16° SSE 14:21:03 46° E 14:26:59 10° NNE
Cosmos 1190 Rocket 4.1 14:16:21 10° NNW 14:21:32 77° WSW 14:25:27 18° S
Cosmos 1455 Rocket 3.4 14:21:34 40° ESE 14:22:15 43° E 14:26:25 10° NNE
GPS 2-12 Rocket1 3.2 14:18:29 10° W 14:22:42 52° SSW 14:23:48 40° SSE
Milstar 3 4.0 14:18:18 10° WNW 14:24:21 36° N 14:30:39 14° ENE
Delta 168 3.4 14:23:30 10° W 14:26:30 41° NNW 14:27:51 27° NE
SL-4 R/B 4.1 14:24:37 10° NNE 14:26:12 13° NE 14:26:12 13° NE
Cosmos 332 Rocket 3.6 14:25:27 10° N 14:30:09 68° ENE 14:31:24 46° SE
Okean 1 Rocket 3.9 14:29:04 10° SSW 14:33:16 50° W 14:37:31 10° N
Meteor 1-27 4.1 14:29:58 19° S 14:34:04 65° E 14:39:38 10° NNE
Cosmos 2016 Rocket 4.0 14:32:56 26° SSE 14:36:33 59° E 14:42:40 10° NNE
Cosmos 2173 Rocket 4.2 14:30:59 10° SSW 14:37:01 69° W 14:43:08 10° N
SJ 16-02 3.7 14:34:40 10° NW 14:37:45 20° W 14:40:51 10° SW
Cosmos 968 Rocket 3.8 14:33:51 10° N 14:38:49 45° ENE 14:38:56 44° ENE
SJ-6B 4.4 14:37:52 16° SSW 14:40:01 28° W 14:43:04 10° NW
Cosmos 1954 Rocket 4.5 14:35:37 10° NNW 14:40:39 57° WSW 14:43:29 25° S
SEDSat Delta rocket 4.1 14:34:27 10° SW 14:40:45 52° SSE 14:41:54 46° ESE
NOSS 3-3 (C) 4.4 14:39:33 10° SW 14:44:09 45° WNW 14:49:04 10° N
Cosmos 1697 Rocket 2.6 14:42:24 10° N 14:47:55 61° ENE 14:48:22 59° E
USA 215 3.2 14:49:08 48° ESE 14:51:02 74° NE 14:57:32 10° NNW
H-10 deb 4.1 14:48:38 10° WSW 14:50:45 15° SW 14:50:45 15° SW
COSMOS 2406 3.0 14:53:33 53° S 14:54:54 75° ESE 15:00:37 10° NNE
Delta 202 4.5 14:53:12 10° W 14:58:03 37° SSW 14:58:03 37° SSW
SWIFT 4.3 14:58:28 10° WNW 14:59:39 20° WNW 14:59:39 20° WNW
Cosmos 1816 Rocket 4.4 14:55:24 10° N 15:01:27 64° E 15:01:27 64° E
Cosmos 2061 Rocket 4.1 15:06:45 58° ENE 15:06:45 58° ENE 15:12:06 10° NNE
USA 229 DEB 4.0 14:59:12 10° NNW 15:07:24 79° ENE 15:09:21 57° SE
USA 229 4.1 14:59:15 10° NNW 15:07:28 78° ENE 15:09:22 58° SE
Terra 3.0 15:10:10 34° N 15:10:10 34° N 15:12:52 10° N
CSL-04 Rocket 4.3 15:07:39 39° SSW 15:09:16 51° WSW 15:14:36 10° NNW
SL-08 R/B 3.9 15:10:44 10° N 15:15:12 52° WNW 15:15:12 52° WNW
Cosmos 1980 Rocket 3.4 15:12:57 10° N 15:16:19 32° NNE 15:16:19 32° NNE
CZ-4 R/B 3.8 15:24:31 19° NW 15:24:31 19° NW 15:25:47 10° NW
CZ-4B R/B 3.8 15:27:55 52° N 15:27:55 52° N 15:32:07 10° NNW
Aureole 3 Rocket 4.3 15:37:44 72° NW 15:37:44 72° NW 15:45:19 10° N
ATLAS 3B R/B 3.0 15:38:32 10° NNW 15:44:53 66° NW 15:44:53 66° NW
Resurs 1-4 Rocket 4.4 20:54:29 10° NNE 20:55:53 19° NNE 20:55:53 19° NNE
Atlas Centaur 2 4.1 21:01:04 30° N 21:01:28 30° N 21:08:19 10° NE
CZ-2D R/B 3.7 21:31:56 10° N 21:34:26 27° N 21:34:26 27° N
Ariane H10+ 4.4 21:42:27 49° SW 21:45:47 56° S 22:00:34 10° ESE
H-2A R/B 3.4 21:40:36 10° N 21:43:36 33° NNW 21:43:36 33° NNW
USA 267 4.1 21:41:20 10° ENE 21:47:20 38° SE 21:48:52 34° SSE
CZ-3 R/B 3.9 21:07:51 10° WNW 21:53:02 83° NNE 22:03:18 10° ESE
Nadezhda 1 Rocket 3.9 21:55:46 73° NW 21:55:46 73° NW 22:01:24 10° N
ARGOS 3.2 21:51:47 10° NNE 21:57:06 70° ESE 21:57:14 70° ESE
Cosmos 1933 Rocket 4.4 21:55:19 10° N 21:58:53 46° NE 21:58:53 46° NE
USA 281 3.1 22:02:09 10° SSE 22:08:44 86° ENE 22:15:18 10° NNW
AQUA 3.7 22:07:21 10° NNE 22:11:49 82° N 22:11:49 82° N
Meteor 1-12 Rocket 4.0 22:06:49 10° N 22:12:26 73° W 22:12:48 70° SW
GOES 2 Rocket 3.7 22:14:27 54° S 22:14:50 55° SSE 22:19:33 10° ENE
Cosmos 1680 Rocket 3.9 22:15:45 36° SSE 22:17:41 59° ESE 22:22:47 10° NNE
Cosmos 2344 4.4 22:16:59 34° W 22:18:31 37° WNW 22:25:25 10° N
GPS 2-17 Rocket1 3.2 22:18:13 60° NNW 22:18:35 63° N 22:23:08 10° E
SL-08 RB Rocket 3.9 22:14:14 10° NNE 22:18:45 66° E 22:19:51 48° SSE
Cosmos 1943 3.1 22:13:37 10° NNW 22:18:48 59° W 22:18:48 59° W
Centaur D AC-29 2.1 22:18:26 38° WSW 22:21:52 78° NNW 22:25:41 10° ENE
H-2A R/B 1.8 22:19:22 10° NNE 22:23:22 81° ESE 22:23:31 78° SE
GPS 2-15 Rocket1 3.9 22:31:22 34° S 22:31:22 34° S 22:34:42 10° SE
Cosmos 1869 Rocket 3.3 22:26:17 10° N 22:30:35 87° W 22:31:55 44° S
ADEOS II 3.8 22:27:01 10° NNW 22:29:18 18° NW 22:29:18 18° NW
NOSS 3-2 (C) 3.1 22:30:37 46° WNW 22:30:48 47° WNW 22:35:34 10° N
Cosmos 2228 Rocket 3.9 22:28:10 18° SSE 22:31:20 51° E 22:35:38 10° NNE
Cosmos 1707 Rocket 3.3 22:34:33 46° S 22:35:47 85° W 22:40:04 10° N
NOSS 2-3 (D) 3.8 22:37:15 43° WNW 22:37:15 43° WNW 22:40:48 10° N
Cosmos 1862 Rocket 3.5 22:39:48 46° SW 22:40:55 64° W 22:45:16 10° N
EPKM 4.1 22:39:44 38° SW 22:40:57 44° S 22:54:45 10° ESE
NOSS 2-3 (E) 4.1 22:41:11 35° WNW 22:41:11 35° WNW 22:44:33 10° N
SL-24 R/B 3.9 22:37:14 10° N 22:41:12 71° WNW 22:42:44 38° SSW
Cosmos 494 Rocket 3.9 22:39:16 26° S 22:42:12 86° ESE 22:47:20 10° NNE
Cosmos 1603 3.7 22:38:53 10° NNW 22:44:37 88° ENE 22:50:18 10° SSE
Cosmos 1900 4.3 22:41:20 10° NNW 22:46:12 84° ENE 22:51:05 10° SSE
Cosmos 923 Rocket 4.5 22:44:58 35° WSW 22:46:19 42° WNW 22:51:18 10° N
Cosmos 1943 Rocket 2.3 22:43:29 16° S 22:48:03 73° ESE 22:53:41 10° NNE
ATLAS 2AS CENTAUR R/B 2.6 22:43:50 10° NNW 22:50:38 79° WSW 22:57:34 10° SSE
Cosmos 2112 Rocket 3.9 22:47:38 24° SSW 22:50:51 74° WNW 22:56:04 10° N
Atlas Centaur 2 4.4 22:44:53 10° NW 22:51:46 32° N 22:58:53 10° ENE
ARIANE 5 R/B 3.2 22:59:07 15° S 22:59:09 15° S 23:01:14 10° SSE
IUS-1 SRM-2 4.1 23:00:17 16° WNW 23:02:57 43° N 23:14:26 10° ENE
SJ-11-01 4.2 23:01:12 10° N 23:05:49 87° W 23:10:25 10° SSW
OAO 3 Rocket 3.9 23:03:20 18° SSW 23:06:33 46° SE 23:11:09 10° ENE
Meteor 2-5 Rocket 3.6 23:01:24 10° SSW 23:06:53 70° W 23:12:22 10° N
Okean 1-7 4.0 23:07:10 23° WSW 23:07:59 25° W 23:11:21 10° NNW
Intelsat 5-1 Rocket 3.9 23:05:06 11° WNW 23:08:52 43° N 23:18:19 10° ENE
Timation 2 Rocket 4.5 23:03:20 10° S 23:09:08 57° ESE 23:15:01 10° NNE
Cosmos 2278 Rocket 2.2 23:06:33 10° SSW 23:12:13 86° WNW 23:17:54 10° NNE
Cosmos 2366 rocket 4.1 23:06:30 10° N 23:12:50 88° E 23:19:12 10° S
CZ-2C R/B 2.7 23:08:37 10° N 23:12:51 40° WNW 23:16:31 13° SW
Cosmos 1733 Rocket 3.0 23:14:57 10° NNW 23:19:12 61° W 23:23:24 10° S
Cosmos 1400 Rocket 4.0 23:21:22 10° NW 23:24:09 20° W 23:26:41 11° SW
Cosmos 2181 Rocket 4.4 23:22:45 10° SSW 23:28:27 41° W 23:34:10 10° NNW
USA 267 4.0 23:24:14 10° NNE 23:30:06 36° NW 23:35:59 10° WSW
Meteor 1-24 Rocket 4.5 23:27:42 10° SW 23:32:17 29° W 23:36:58 10° NNW
SEDSat Delta rocket 3.0 23:29:01 10° WNW 23:33:56 79° SSW 23:38:17 10° ESE
SL-16 R/B 2.8 23:28:19 10° S 23:34:14 45° WSW 23:40:10 10° NNW
USA 59 Rocket 0.7 23:29:05 10° SSW 23:34:51 65° ESE 23:38:56 10° NNE
USA 307 4.0 23:32:23 10° WNW 23:35:10 19° WSW 23:37:59 10° SSW
EPKM 4.1 23:33:17 10° SSW 23:35:52 27° SE 23:42:03 10° E
Exosat Rocket 4.4 23:33:14 10° SW 23:38:15 33° WNW 23:42:44 10° N
Cosmos 1821 Rocket 4.0 23:33:53 10° N 23:40:05 84° W 23:46:11 10° S
Meteosat 1 Rocket2 3.2 23:38:46 10° WNW 23:44:34 77° SSW 23:48:39 10° ESE
Stardust Del rocket 2.8 23:41:55 10° WNW 23:45:53 76° NNE 23:48:27 10° E
NOSS 2-1 (C) 4.4 23:41:12 10° SSW 23:47:08 61° ESE 23:51:21 10° NE
